sat.trackr.live / text

‹ back to catalog

STARLINK-32596

NORAD 62316 · 2024-239R

PAYLOAD ACTIVE UNKNOWN

§ Identity

Operator
Country
US
Launch date
2024-12-13
Launch site
AFWTR
Launch vehicle
Mass (kg)
RCS (m²)

Purposes: comms

External: N2YO · Heavens-Above · Gunter

§ Orbital elements

Epoch: 2026-09-21T18:01:35.103072Z

Period
93.85 min
Inclination
53.1609°
Eccentricity
0.0001249
Mean motion
15.34401979 rev/d
Perigee alt
461.8 km
Apogee alt
463.6 km
Semi-major
6,840.8 km
B*
6.9204e-4
RAAN
359.5634°
Arg perigee
63.0098°
Mean anomaly
297.1032°
Rev number
9,945

§ Raw data

STARLINK-325961 62316U 24239R   26264.75110073  .00023079  00000+0  69204-3 0  99962 62316  53.1609 359.5634 0001249  63.0098 297.1032 15.34401979 99455

JSON: /api/v1/satellites/62316 · /tle

For live sub-satellite position, see the globe view (requires WebGL).

§ Visibility from observer

Set your observer location to see the next 7 days of passes ≥ 10°. The values pass through the URL so the page stays shareable.

No JS? Fill the form by hand. The geolocation button needs JavaScript.